Location: Peterborough
(44.3091°N, 78.3197°W)
Time: 01:00:27
(UTC-04:00)

Vanguard 2 Rocket - Pass Details

Date: 24 March 2023
Orbit: 554 x 3314 km, 32.9° (Epoch: 02 June)

Event Time Altitude Azimuth Distance (km) Brightness Sun altitude
Rises 00:39:06 0° 266° (W) 4,865 10.7 -43.5°
Reaches altitude 10° 00:41:59 10° 260° (W) 4,194 10.3 -43.6°
Enters shadow 00:44:05 18° 254° (WSW) 3,778 9.9 -43.7°
Maximum altitude 00:53:23 46° 192° (SSW) 3,192 - -44.0°
Drops below altitude 10° 01:10:38 10° 128° (SE) 6,176 - -44.3°
Sets 01:16:01 0° 123° (ESE) 7,288 - -44.4°
